Location: Unspecified
(44.2861°N, 0.0000°E)
Time: 01:08:12
(UTC+00:00)

Starlette Rocket - Visible Passes

Search period start: 04 April 2026 00:00
Search period end: 14 April 2026 00:00
Orbit: 796 x 1115 km, 49.8° (Epoch: 28 March)

Date Brightness Start Highest point End Pass type
(mag) Time Alt. Az. Time Alt. Az. Time Alt. Az.
4 Apr 9.2 04:46:01 10° S 04:50:22 23° SE 04:54:57 10° E visible
6 Apr 9.5 03:37:19 10° SSE 03:40:11 14° SE 03:43:07 10° E visible
7 Apr 8.9 03:54:25 10° S 03:58:53 25° SE 04:03:34 10° E visible
8 Apr 8.1 04:12:58 12° SSW 04:17:44 42° SE 04:23:13 10° ENE visible
9 Apr 9.1 02:47:18 14° SE 02:48:40 16° SE 02:51:56 10° E visible
9 Apr 7.5 04:31:28 11° SW 04:36:45 66° SE 04:42:36 10° ENE visible
10 Apr 8.5 03:05:44 23° SSE 03:07:25 27° SE 03:12:09 10° ENE visible
10 Apr 7.3 04:50:19 10° WSW 04:55:55 87° NNW 05:01:54 10° ENE visible
11 Apr 7.8 03:24:06 30° SSW 03:26:18 45° SE 03:31:46 10° ENE visible
12 Apr 9.2 01:58:15 16° ESE 01:58:15 16° ESE 02:00:43 10° E visible
12 Apr 7.2 03:42:25 28° SW 03:45:21 70° SSE 03:51:07 10° ENE visible
13 Apr 8.4 02:16:31 29° SE 02:16:31 29° SE 02:20:47 10° ENE visible
13 Apr 7.2 04:00:40 21° WSW 04:04:31 82° NNW 04:10:23 10° ENE visible
